Weather History for KTUS - December, 2012

Change the Weather History Date:

Thursday, December 6, 2012

  Actual Average Record
Temperature  
Mean Temperature 64 °F 53 °F  
Max Temperature 78 °F 66 °F 84 °F (1939)
Min Temperature 49 °F 40 °F 18 °F (1912)
Degree Days  
Heating Degree Days 1 12  
Month to date heating degree days 14 69  
Since 1 July heating degree days 81 275  
Cooling Degree Days 0 0  
Month to date cooling degree days 0 0  
Year to date cooling degree days 3597 3146  
Growing Degree Days 13 (Base 50)    
Moisture  
Dew Point 30 °F    
Average Humidity 30    
Maximum Humidity 42    
Minimum Humidity 18    
Precipitation  
Precipitation 0.00 in 0.03 in 0.81 in (1986)
Month to date precipitation 0.00 0.17  
Year to date precipitation 6.73 10.83  
Snow  
Snow 0.00 in - - ()
Month to date snowfall 0.0  
Snow Depth 0.00 in    
Sea Level Pressure  
Sea Level Pressure 29.87 in    
Wind  
Wind Speed 6 mph (SSE)    
Max Wind Speed 14 mph    
Max Gust Speed 16 mph    
Visibility 10 miles    
Events      
T = Trace of Precipitation, MM = Missing Value Source: NWS Daily Summary

Daily Weather History Graph

Daily Weather History Graph

Search for Another Location

Airport or City:

Trip Planner

Search our weather history database for the weather conditions in past years. The results will help you decide how hot, cold, wet, or windy it might be!

Date:

Astronomy

Dec. 06, 2012 Rise Set
Actual Time 7:11 AM MST 5:18 PM MST
Civil Twilight 6:44 AM MST 5:45 PM MST
Nautical Twilight 6:13 AM MST 6:16 PM MST
Astronomical Twilight 5:44 AM MST 6:45 PM MST
Moon No Moon Rise 12:25 PM MST (12/6)
Length of Visible Light 11h 01m
Length of Day
10h 07m
Waning Gibbous, 48% of the Moon is Illuminated
Dec 6
Waning Gibbous
Dec 13
New
Dec 19
First Quarter
Dec 28
Full
Jan 4
Last Quarter

Hourly Weather History & Observations

Time (MST) Temp. Dew Point Humidity Pressure Visibility Wind Dir Wind Speed Gust Speed Precip Events Conditions
12:53 AM 52.0 °F 27.0 °F 38% 29.94 in 10.0 mi SE 5.8 mph - N/A   Clear
1:53 AM 51.1 °F 27.0 °F 39% 29.94 in 10.0 mi SSE 6.9 mph - N/A   Clear
2:53 AM 52.0 °F 28.0 °F 40% 29.92 in 10.0 mi SE 3.5 mph - N/A   Clear
3:53 AM 51.1 °F 28.0 °F 41% 29.91 in 10.0 mi SSE 8.1 mph - N/A   Clear
4:53 AM 51.1 °F 28.0 °F 41% 29.89 in 10.0 mi SSE 12.7 mph - N/A   Clear
5:53 AM 51.1 °F 28.0 °F 41% 29.89 in 10.0 mi South 5.8 mph - N/A   Clear
6:53 AM 50.0 °F 28.9 °F 44% 29.90 in 10.0 mi SE 12.7 mph - N/A   Clear
7:53 AM 52.0 °F 28.0 °F 40% 29.91 in 10.0 mi SE 10.4 mph - N/A   Clear
8:53 AM 55.9 °F 28.0 °F 34% 29.91 in 10.0 mi SSE 9.2 mph - N/A   Clear
9:53 AM 63.0 °F 28.9 °F 28% 29.91 in 10.0 mi South 5.8 mph - N/A   Clear
10:53 AM 66.9 °F 30.0 °F 25% 29.91 in 10.0 mi WSW 3.5 mph - N/A   Clear
11:53 AM 71.1 °F 32.0 °F 24% 29.88 in 10.0 mi WNW 5.8 mph - N/A   Clear
12:53 PM 73.9 °F 30.9 °F 21% 29.84 in 10.0 mi NNW 3.5 mph - N/A   Clear
1:53 PM 77.0 °F 30.9 °F 19% 29.81 in 10.0 mi North 6.9 mph - N/A   Clear
2:53 PM 77.0 °F 32.0 °F 19% 29.79 in 10.0 mi North 6.9 mph - N/A   Clear
3:53 PM 75.0 °F 32.0 °F 21% 29.79 in 10.0 mi Calm Calm - N/A   Clear
4:53 PM 75.0 °F 32.0 °F 21% 29.78 in 10.0 mi NNE 3.5 mph - N/A   Clear
5:53 PM 70.0 °F 32.0 °F 25% 29.81 in 10.0 mi NW 3.5 mph - N/A   Clear
6:53 PM 64.0 °F 32.0 °F 30% 29.83 in 10.0 mi Calm Calm - N/A   Clear
7:53 PM 62.1 °F 30.9 °F 31% 29.84 in 10.0 mi South 6.9 mph - N/A   Clear
8:53 PM 59.0 °F 30.0 °F 33% 29.85 in 10.0 mi South 5.8 mph - N/A   Clear
9:53 PM 57.0 °F 30.0 °F 36% 29.86 in 10.0 mi South 3.5 mph - N/A   Clear
10:53 PM 55.0 °F 28.9 °F 37% 29.86 in 10.0 mi SSE 4.6 mph - N/A   Clear
11:53 PM 55.0 °F 28.9 °F 37% 29.85 in 10.0 mi South 4.6 mph - N/A   Clear